[[{"header":{"parameterUnit":"m.s-1","parameterCategory":1,"la1":30.2991,"la2":30.254,"lo1":-89.0895,"lo2":-89.0444,"dy":0.0017,"dx":0.0017,"nx":28,"ny":28,"refTime":"2025-11-15T09:00:00:Z","depth":0,"parameterNumber":2,"parameterNumberName":"U-component_of_WINDS"},"data":[0,0,0,0,0,0,0,0,0,0,0,0,0,0,0,0,0,0,0,0,0,0,0,0,0,0,0,0,0,0,0,0,0,0,0,0,0,0,0,0,0,0,0,0,0,0,0,0,0,0,0,0,0,0,0,0,0,0,-0.7362,-0.7362,0,-0.7288,-0.7287,-0.7286,-0.7244,-0.7244,-0.7244,-0.7243,-0.7168,-0.7166,-0.7164,0,0,0,0,0,0,0,0,0,0,0,0,0,-0.747,-0.7468,-0.7363,-0.7362,-0.7361,-0.7288,-0.7287,-0.7286,-0.7244,-0.7244,-0.7244,-0.7243,-0.7168,-0.7166,-0.7164,0,0,0,0,0,0,0,0,0,0,0,0,0,-0.7412,-0.7467,-0.7363,-0.7331,-0.7327,-0.7288,-0.7287,-0.7285,-0.7244,-0.7244,-0.7243,-0.7243,-0.7169,-0.7166,-0.7164,-0.715,0,0,-0.7155,-0.7154,0,0,0,0,0,0,0,0,-0.7415,-0.7408,-0.7337,-0.7333,-0.7329,-0.7275,-0.7297,-0.724,-0.7244,-0.7276,-0.7243,-0.7243,-0.7204,-0.7198,-0.7184,-0.7147,-0.7144,-0.7155,-0.7153,-0.7152,-0.7151,0,0,0,0,0,0,0,-0.7419,-0.7411,-0.7333,-0.7336,-0.7331,-0.7321,-0.7312,-0.7286,-0.7242,-0.7273,-0.727,-0.7261,-0.7202,-0.7187,-0.7182,-0.7143,-0.7155,-0.7152,-0.7151,-0.7149,-0.7089,-0.7089,0,0,0,0,0,0,-0.7428,-0.7415,-0.7335,-0.7331,-0.7372,-0.7319,-0.7309,-0.7292,-0.7242,-0.7234,-0.7262,-0.726,-0.7192,-0.7186,-0.718,-0.716,-0.7152,-0.7149,-0.7148,-0.7089,-0.7089,-0.7089,0,0,0,0,0,0,-0.7431,-0.7421,-0.7338,-0.7372,-0.736,-0.7317,-0.7299,-0.7291,-0.7277,-0.7233,-0.7225,-0.7255,-0.7192,-0.7184,-0.7158,-0.7157,-0.7148,-0.7145,-0.7089,-0.7089,-0.7089,-0.7121,0,0,0,0,0,0,-0.7434,-0.7423,-0.7417,-0.7372,-0.7359,-0.7318,-0.7298,-0.729,-0.7272,-0.7269,-0.7225,-0.7218,-0.7191,-0.7162,-0.7155,-0.7153,-0.7143,-0.7089,-0.7089,-0.7089,-0.712,-0.7122,-0.7124,0,0,0,0,0,-0.7438,-0.7429,-0.7417,-0.7408,-0.7351,-0.7318,-0.731,-0.7279,-0.7272,-0.7266,-0.7238,-0.7219,-0.7158,-0.716,-0.7151,-0.7148,-0.7089,-0.7089,-0.7089,-0.7119,-0.7122,-0.7124,0,0,0,0,0,0,-0.7476,-0.7423,-0.7409,-0.7385,-0.7356,-0.7311,-0.7302,-0.7283,-0.7256,-0.7254,-0.7218,-0.7208,-0.7186,-0.7164,-0.7167,-0.7132,-0.7121,-0.712,-0.7147,-0.7149,-0.7151,-0.7156,-0.7141,0,0,0,0,0,-0.7482,-0.7459,-0.7414,-0.7398,-0.7384,-0.7346,-0.733,-0.7309,-0.7277,-0.7265,-0.7235,-0.7206,-0.718,-0.7163,-0.7137,-0.7117,-0.7106,-0.711,-0.7113,-0.7115,-0.7114,-0.71,-0.7101,-0.709,-0.709,-0.709,0,0,-0.7493,-0.7461,-0.7449,-0.7404,-0.7379,-0.7357,-0.7335,-0.7313,-0.7295,-0.7262,-0.7235,-0.7212,-0.7177,-0.7153,-0.7142,-0.7135,-0.7114,-0.7115,-0.7117,-0.7114,-0.7101,-0.7102,-0.7103,-0.709,-0.709,-0.709,0,0,-0.7502,-0.7476,-0.7459,-0.7435,-0.7397,-0.7371,-0.7367,-0.7324,-0.7308,-0.728,-0.7254,-0.7234,-0.719,-0.7165,-0.7147,-0.7147,-0.7128,-0.714,-0.7151,-0.7138,-0.7139,-0.714,-0.7139,-0.7139,-0.7139,-0.7139,-0.7139,0,-0.7522,-0.7486,-0.7453,-0.7431,-0.7412,-0.738,-0.7362,-0.734,-0.7296,-0.7283,-0.7277,-0.7221,-0.7195,-0.7165,-0.7165,-0.7151,-0.7145,-0.7144,-0.7141,-0.7142,-0.7142,-0.714,-0.714,-0.714,-0.714,-0.714,-0.714,0,-0.7511,-0.7487,-0.7477,-0.7435,-0.7415,-0.7395,-0.7359,-0.7343,-0.7324,-0.7299,-0.7271,-0.7239,-0.7205,-0.7197,-0.7178,-0.7164,-0.7161,-0.7149,-0.7137,-0.7145,-0.7143,-0.7142,-0.7143,-0.7142,-0.7142,-0.7141,0,0,-0.7542,-0.7481,-0.7478,-0.7458,-0.7413,-0.7394,-0.7373,-0.734,-0.7326,-0.7297,-0.7278,-0.7242,-0.7229,-0.7209,-0.7187,-0.7176,-0.7177,-0.7165,-0.7164,-0.7168,-0.7159,-0.7168,-0.7168,-0.7165,-0.7164,-0.7164,-0.7161,0,-0.7544,-0.7503,-0.7473,-0.7445,-0.7421,-0.7391,-0.7372,-0.7343,-0.732,-0.7297,-0.7271,-0.7245,-0.7232,-0.7219,-0.7207,-0.7179,-0.7175,-0.7179,-0.7146,-0.7146,-0.7155,-0.7167,-0.7176,-0.7175,-0.716,-0.716,-0.716,0,-0.754,-0.7511,-0.748,-0.7438,-0.7427,-0.7411,-0.7377,-0.7356,-0.7322,-0.7306,-0.7283,-0.726,-0.7237,-0.7228,-0.7195,-0.7199,-0.7183,-0.7168,-0.7167,-0.7162,-0.7153,-0.7161,-0.7174,-0.7173,-0.7159,-0.7159,-0.7159,0,-0.7565,-0.7518,-0.7493,-0.7477,-0.7427,-0.7416,-0.7395,-0.7361,-0.7343,-0.7314,-0.7302,-0.7271,-0.7254,-0.723,-0.72,-0.7196,-0.7169,-0.7158,-0.7155,-0.7156,-0.715,-0.715,-0.7159,-0.7142,-0.7142,-0.7142,-0.7142,0,-0.7569,-0.7551,-0.7503,-0.7488,-0.7467,-0.7432,-0.7412,-0.7389,-0.7359,-0.7338,-0.731,-0.7292,-0.7253,-0.723,-0.7206,-0.7182,-0.7175,-0.7161,-0.7154,-0.7162,-0.7164,-0.7151,-0.715,-0.7142,-0.7142,-0.7142,-0.7142,0,-0.7592,-0.7559,-0.753,-0.7485,-0.7473,-0.746,-0.7421,-0.7405,-0.738,-0.7355,-0.7347,-0.7307,-0.7279,-0.7246,-0.7207,-0.7191,-0.7168,-0.7159,-0.7179,-0.7175,-0.7173,-0.7173,-0.7173,-0.7171,-0.7156,-0.7157,-0.7157,0,-0.7597,-0.7582,-0.7535,-0.7519,-0.7499,-0.7474,-0.7454,-0.742,-0.7401,-0.7362,-0.735,-0.7319,-0.7293,-0.7248,-0.7216,-0.7186,-0.7176,-0.7178,-0.7171,-0.718,-0.7175,-0.7176,-0.7174,-0.718,-0.718,-0.718,-0.7181,0,-0.7609,-0.7593,-0.7566,-0.7533,-0.7511,-0.7484,-0.7456,-0.7444,-0.7404,-0.7385,-0.7354,-0.7334,-0.7293,-0.7263,-0.7228,-0.7207,-0.7187,-0.7183,-0.718,-0.7188,-0.72,-0.7193,-0.7183,-0.7183,-0.7183,-0.7183,-0.7182,-0.7182,-0.7622,-0.7607,-0.7571,-0.7542,-0.7517,-0.7491,-0.7474,-0.7446,-0.742,-0.7384,-0.7366,-0.7336,-0.7302,-0.7254,-0.7233,-0.7209,-0.7203,-0.7199,-0.7198,-0.7197,-0.7199,-0.7204,-0.7203,-0.7203,-0.7203,-0.7203,-0.7202,0,-0.7631,-0.7606,-0.758,-0.7541,-0.7518,-0.7501,-0.7469,-0.7451,-0.7424,-0.7395,-0.7369,-0.7334,-0.7304,-0.727,-0.7238,-0.7225,-0.7215,-0.7218,-0.7218,-0.7213,-0.7207,-0.7212,-0.7227,-0.7227,-0.7227,-0.7227,-0.7227,-0.7227,-0.7633,-0.7606,-0.7586,-0.7547,-0.7523,-0.7493,-0.7476,-0.7452,-0.7427,-0.739,-0.7364,-0.7342,-0.731,-0.7276,-0.7248,-0.7239,-0.7228,-0.7233,-0.7221,-0.7216,-0.7214,-0.7212,-0.7216,-0.7231,-0.7231,-0.7229,-0.7229,-0.7229]},{"header":{"parameterUnit":"m.s-1","parameterCategory":1,"la1":30.2991,"la2":30.254,"lo1":-89.0895,"lo2":-89.0444,"dy":0.0017,"dx":0.0017,"nx":28,"ny":28,"refTime":"2025-11-15T09:00:00:Z","depth":0,"parameterNumber":3,"parameterNumberName":"V-component_of_WINDS"},"data":[0,0,0,0,0,0,0,0,0,0,0,0,0,0,0,0,0,0,0,0,0,0,0,0,0,0,0,0,0,0,0,0,0,0,0,0,0,0,0,0,0,0,0,0,0,0,0,0,0,0,0,0,0,0,0,0,0,0,2.7398,2.7398,0,2.7438,2.7438,2.7439,2.7433,2.7432,2.7432,2.7431,2.7468,2.7469,2.7471,0,0,0,0,0,0,0,0,0,0,0,0,0,2.7313,2.7315,2.7398,2.7398,2.7399,2.7438,2.7438,2.7439,2.7433,2.7432,2.7432,2.7431,2.7467,2.7469,2.7471,0,0,0,0,0,0,0,0,0,0,0,0,0,2.7351,2.7315,2.7398,2.7401,2.7402,2.7438,2.7438,2.7439,2.7433,2.7432,2.7431,2.743,2.7466,2.7469,2.7471,2.7505,0,0,2.7478,2.7479,0,0,0,0,0,0,0,0,2.7349,2.7354,2.74,2.7401,2.7402,2.743,2.7422,2.7461,2.7434,2.7421,2.7431,2.743,2.7455,2.7459,2.7468,2.7507,2.7508,2.7478,2.748,2.7481,2.7482,0,0,0,0,0,0,0,2.7346,2.7352,2.7414,2.7401,2.7402,2.7399,2.7403,2.7429,2.7443,2.7422,2.7422,2.7427,2.7456,2.7466,2.7469,2.7509,2.7478,2.7481,2.7482,2.7483,2.7577,2.7579,0,0,0,0,0,0,2.7343,2.735,2.7412,2.7415,2.7372,2.7401,2.7406,2.7421,2.7443,2.7445,2.7428,2.7426,2.7462,2.7466,2.747,2.7512,2.7481,2.7483,2.7484,2.7576,2.7578,2.7579,0,0,0,0,0,0,2.7342,2.7349,2.7411,2.7382,2.739,2.7404,2.7421,2.7423,2.7433,2.7447,2.7449,2.7436,2.7462,2.7467,2.7497,2.7513,2.7484,2.7486,2.7575,2.7577,2.7578,2.7595,0,0,0,0,0,0,2.7339,2.7348,2.7362,2.7383,2.7392,2.7438,2.7422,2.7424,2.7438,2.7436,2.7455,2.7457,2.7461,2.7493,2.7499,2.7516,2.7488,2.7574,2.7576,2.7578,2.7593,2.7597,2.7601,0,0,0,0,0,2.7336,2.7365,2.7363,2.7371,2.741,2.7439,2.7444,2.7449,2.7439,2.7453,2.7462,2.7457,2.751,2.7496,2.7503,2.752,2.7573,2.7575,2.7578,2.7592,2.7596,2.76,0,0,0,0,0,0,2.7344,2.7367,2.7366,2.7402,2.7419,2.7438,2.7456,2.7454,2.7473,2.7471,2.7475,2.7479,2.7509,2.7518,2.7502,2.7554,2.754,2.7544,2.7548,2.7553,2.7557,2.7554,2.749,0,0,0,0,0,2.735,2.7374,2.7392,2.7422,2.7431,2.7442,2.7454,2.7457,2.7474,2.748,2.7492,2.7507,2.7527,2.754,2.756,2.7594,2.7598,2.7609,2.7613,2.7616,2.7619,2.7638,2.7643,2.7587,2.7587,2.7587,0,0,2.7363,2.7379,2.7393,2.7424,2.7437,2.746,2.7448,2.7472,2.7489,2.7484,2.7513,2.7522,2.7539,2.7572,2.7586,2.758,2.7636,2.7619,2.7621,2.7623,2.7641,2.7647,2.7651,2.7589,2.7588,2.7588,0,0,2.7398,2.7412,2.7439,2.7453,2.7474,2.7481,2.7487,2.7507,2.7513,2.7543,2.754,2.7559,2.7593,2.7606,2.7617,2.7657,2.7653,2.7663,2.7682,2.77,2.7705,2.7709,2.7723,2.7728,2.7666,2.7666,2.7666,0,2.7411,2.7447,2.7453,2.7478,2.7492,2.749,2.7517,2.7529,2.7554,2.7563,2.7555,2.7599,2.761,2.7646,2.7656,2.7665,2.7671,2.7661,2.7704,2.7708,2.7712,2.7726,2.7731,2.7667,2.7667,2.7667,2.7667,0,2.7461,2.7486,2.7505,2.7532,2.7547,2.7573,2.7582,2.7596,2.7598,2.7605,2.7635,2.7649,2.7671,2.768,2.768,2.7715,2.771,2.7703,2.7689,2.7718,2.7731,2.7736,2.7669,2.7668,2.7668,2.7668,0,0,2.7503,2.7533,2.754,2.7552,2.7574,2.7593,2.7618,2.7641,2.7654,2.7671,2.7692,2.7721,2.7715,2.7727,2.7729,2.7745,2.7776,2.7736,2.7737,2.7744,2.7816,2.7822,2.7828,2.7774,2.7775,2.7776,2.7815,0,2.754,2.7587,2.7593,2.7634,2.7657,2.7655,2.7677,2.7692,2.77,2.7719,2.7726,2.7748,2.7738,2.7745,2.7761,2.7769,2.7791,2.7766,2.7793,2.7793,2.7789,2.7835,2.7841,2.7877,2.782,2.782,2.7821,0,2.7591,2.7611,2.7655,2.7675,2.7684,2.7704,2.7726,2.7745,2.7762,2.7766,2.778,2.778,2.7805,2.7789,2.7823,2.7806,2.7817,2.7823,2.7824,2.7827,2.7809,2.7839,2.7888,2.7894,2.7829,2.7828,2.7828,0,2.7617,2.7655,2.7687,2.7697,2.7721,2.7735,2.7745,2.7761,2.7775,2.7793,2.7802,2.7822,2.7834,2.7849,2.7854,2.7842,2.7888,2.7872,2.7891,2.7891,2.7901,2.7901,2.7954,2.7908,2.7907,2.7907,2.7907,0,2.7659,2.7685,2.7699,2.7718,2.7748,2.7754,2.7782,2.7792,2.7806,2.7826,2.7825,2.7844,2.7849,2.7868,2.7872,2.7899,2.7904,2.7908,2.7908,2.7908,2.7908,2.7916,2.7913,2.7909,2.7908,2.7908,2.7908,0,2.7694,2.7704,2.7738,2.7758,2.7764,2.7785,2.7801,2.7819,2.7826,2.7852,2.7858,2.7869,2.7891,2.7898,2.7924,2.7927,2.7959,2.7957,2.7954,2.7954,2.7973,2.7971,2.8033,2.8042,2.799,2.799,2.7991,0,2.772,2.7741,2.7764,2.7778,2.7789,2.7812,2.7826,2.7833,2.7847,2.7869,2.7884,2.7906,2.7925,2.796,2.797,2.799,2.7989,2.8009,2.7992,2.7991,2.7989,2.7988,2.799,2.8012,2.8013,2.8013,2.8014,0,2.7766,2.777,2.7792,2.7815,2.7833,2.7851,2.7868,2.788,2.7888,2.7904,2.7928,2.7943,2.797,2.7992,2.8013,2.8022,2.8019,2.8019,2.8025,2.8025,2.8022,2.8024,2.7963,2.8018,2.8017,2.8017,2.8017,2.8017,2.7797,2.7816,2.7835,2.7859,2.7874,2.789,2.7908,2.7918,2.7939,2.7963,2.7965,2.7991,2.8007,2.8034,2.8044,2.8063,2.8057,2.8065,2.8067,2.8069,2.8071,2.8019,2.8067,2.8067,2.8067,2.8067,2.8066,0,2.7843,2.7856,2.7878,2.7904,2.7922,2.7919,2.7939,2.7954,2.7977,2.7993,2.8012,2.8039,2.806,2.8072,2.8093,2.8106,2.8105,2.8111,2.8111,2.8113,2.8075,2.8069,2.8112,2.8112,2.8112,2.8112,2.8112,2.8112,2.787,2.7901,2.7908,2.7946,2.7958,2.7984,2.7995,2.801,2.8023,2.8054,2.8073,2.808,2.8094,2.8116,2.8135,2.8138,2.8146,2.8153,2.8155,2.812,2.8115,2.8111,2.8105,2.8155,2.8155,2.8191,2.8191,2.8191]}]]